Gainesville, FL

5:42 PM EDT on August 23, 2016 (GMT -0400)
Gainesville Regional

Weather History for KGNV - December, 2012

Change the Weather History Date:

Saturday, December 29, 2012

  Actual Average Record
Temperature  
Mean Temperature 56 °F 54 °F  
Max Temperature 71 °F 66 °F 82 °F (1946)
Min Temperature 41 °F 43 °F 23 °F (1961)
Degree Days  
Heating Degree Days 9 11  
Month to date heating degree days 165 273  
Since 1 July heating degree days 358 434  
Cooling Degree Days 0 0  
Month to date cooling degree days 19 24  
Year to date cooling degree days 2981 2640  
Growing Degree Days 7 (Base 50)    
Moisture  
Dew Point 59 °F    
Average Humidity 71    
Maximum Humidity 93    
Minimum Humidity 48    
Precipitation  
Precipitation 1.04 in 0.07 in 3.40 in (1983)
Month to date precipitation 6.93 2.22  
Year to date precipitation 56.24 47.15  
Snow  
Snow 0.00 in 0.00 in 0.00 in ()
Month to date snowfall 0.0 0.0  
Since 1 July snowfall 0.0 0.0  
Snow Depth 0.00 in    
Sea Level Pressure  
Sea Level Pressure 29.91 in    
Wind  
Wind Speed 11 mph (WSW)    
Max Wind Speed 23 mph    
Max Gust Speed 36 mph    
Visibility 8 miles    
Events Rain , Thunderstorm    
T = Trace of Precipitation, MM = Missing Value Source: NWS Daily Summary

Daily Weather History Graph

Daily Weather History Graph

Search for Another Location

Airport or City:

Trip Planner

Search our weather history database for the weather conditions in past years. The results will help you decide how hot, cold, wet, or windy it might be!

Date:

Astronomy

Dec. 29, 2012 Rise Set
Actual Time 7:23 AM EST 5:39 PM EST
Civil Twilight 6:57 AM EST 6:05 PM EST
Nautical Twilight 6:27 AM EST 6:35 PM EST
Astronomical Twilight 5:58 AM EST 7:04 PM EST
Moon 7:03 PM EST (12/29) 8:02 AM EST (12/29)
Length of Visible Light 11h 08m
Length of Day
10h 15m
Full, 98% of the Moon is Illuminated
Dec 29
Full
Jan 4
Last Quarter
Jan 11
New
Jan 18
First Quarter
Jan 26
Full

Hourly Weather History & Observations

Time (EST) Temp. Windchill Dew Point Humidity Pressure Visibility Wind Dir Wind Speed Gust Speed Precip Events Conditions
12:53 AM 59.0 °F - 57.0 °F 93% 29.88 in 5.0 mi SE 5.8 mph - 0.00 in Rain Light Rain
1:13 AM 60.8 °F - 57.2 °F 88% 29.87 in 5.0 mi SE 6.9 mph - 0.01 in Rain Light Rain
1:20 AM 60.8 °F - 60.8 °F 100% 29.87 in 2.5 mi SSE 5.8 mph - 0.03 in Rain Heavy Rain
1:35 AM 60.8 °F - 60.8 °F 100% 29.86 in 7.0 mi South 4.6 mph - 0.12 in Rain Light Rain
1:53 AM 62.1 °F - 61.0 °F 96% 29.86 in 10.0 mi South 5.8 mph - 0.13 in Rain Light Rain
2:16 AM 62.6 °F - 60.8 °F 94% 29.83 in 7.0 mi SSE 8.1 mph - 0.00 in   Overcast
2:53 AM 64.0 °F - 62.1 °F 93% 29.81 in 6.0 mi SSE 6.9 mph - 0.00 in Rain , Thunderstorm Light Rain
3:17 AM 66.2 °F - 64.4 °F 94% 29.81 in 2.5 mi South 11.5 mph - 0.12 in Rain , Thunderstorm Thunderstorms and Rain
3:27 AM 66.2 °F - 64.4 °F 94% 29.81 in 5.0 mi South 8.1 mph - 0.15 in Rain , Thunderstorm Light Rain
3:37 AM 66.2 °F - 66.2 °F 100% 29.82 in 6.0 mi South 11.5 mph - 0.16 in Rain Light Rain
3:53 AM 68.0 °F - 66.0 °F 93% 29.82 in 5.0 mi South 17.3 mph 23.0 mph 0.19 in Rain Light Rain
4:09 AM 69.8 °F - 66.2 °F 88% 29.82 in 10.0 mi SSW 16.1 mph 23.0 mph 0.01 in Rain Light Rain
4:17 AM 69.8 °F - 66.2 °F 88% 29.82 in 10.0 mi SSW 11.5 mph 23.0 mph 0.01 in Rain Light Rain
4:25 AM 69.8 °F - 66.2 °F 88% 29.82 in 10.0 mi SSW 10.4 mph 19.6 mph 0.01 in Rain Light Rain
4:37 AM 69.8 °F - 66.2 °F 88% 29.81 in 10.0 mi South 9.2 mph 18.4 mph 0.01 in Rain Light Rain
4:53 AM 69.1 °F - 66.9 °F 93% 29.83 in 8.0 mi SSW 11.5 mph 18.4 mph 0.03 in Rain Rain
5:09 AM 69.8 °F - 66.2 °F 88% 29.82 in 5.0 mi SSW 10.4 mph - 0.07 in Rain Rain
5:53 AM 71.1 °F - 69.1 °F 93% 29.83 in 3.0 mi SSW 12.7 mph 24.2 mph 0.25 in Rain Rain
6:03 AM 71.6 °F - 69.8 °F 94% 29.83 in 5.0 mi SSW 12.7 mph 19.6 mph 0.04 in Rain , Thunderstorm Rain
6:10 AM 71.6 °F - 69.8 °F 94% 29.84 in 1.8 mi SSW 20.7 mph 35.7 mph 0.07 in Rain , Thunderstorm Heavy Thunderstorms and Rain
6:21 AM 69.8 °F - 68.0 °F 94% 29.84 in 1.8 mi SW 10.4 mph - 0.38 in Rain , Thunderstorm Heavy Thunderstorms and Rain
6:30 AM 69.8 °F - 69.8 °F 100% 29.84 in 5.0 mi SW 15.0 mph 25.3 mph 0.44 in Rain Light Rain
6:38 AM 71.6 °F - 69.8 °F 94% 29.85 in 10.0 mi SW 15.0 mph 26.5 mph 0.44 in Rain Light Rain
6:44 AM 71.6 °F - 68.0 °F 88% 29.85 in 10.0 mi SW 15.0 mph 29.9 mph 0.44 in Rain Light Rain
6:53 AM 71.1 °F - 68.0 °F 90% 29.85 in 10.0 mi SW 16.1 mph 25.3 mph 0.44 in   Overcast
7:53 AM 70.0 °F - 68.0 °F 93% 29.87 in 10.0 mi SW 13.8 mph 23.0 mph 0.00 in Rain Light Rain
8:53 AM 70.0 °F - 66.9 °F 90% 29.90 in 10.0 mi WSW 12.7 mph - 0.00 in   Overcast
9:53 AM 70.0 °F - 66.0 °F 87% 29.92 in 10.0 mi West 11.5 mph - N/A   Overcast
10:05 AM 69.8 °F - 64.4 °F 83% 29.92 in 10.0 mi West 12.7 mph - N/A   Overcast
10:48 AM 71.6 °F - 64.4 °F 78% 29.94 in 10.0 mi West 10.4 mph - N/A   Scattered Clouds
10:53 AM 71.1 °F - 64.0 °F 78% 29.94 in 10.0 mi West 12.7 mph - N/A   Scattered Clouds
11:06 AM 69.8 °F - 62.6 °F 78% 29.94 in 10.0 mi WNW 15.0 mph 23.0 mph N/A   Mostly Cloudy
11:18 AM 69.8 °F - 60.8 °F 73% 29.94 in 10.0 mi WNW 15.0 mph - N/A   Mostly Cloudy
11:41 AM 68.0 °F - 60.8 °F 78% 29.94 in 10.0 mi West 16.1 mph 19.6 mph N/A   Overcast
11:51 AM 66.2 °F - 57.2 °F 73% 29.94 in 10.0 mi WNW 16.1 mph - N/A   Overcast
11:53 AM 66.9 °F - 57.9 °F 73% 29.94 in 10.0 mi West 15.0 mph - N/A   Overcast
12:17 PM 66.2 °F - 57.2 °F 73% 29.94 in 10.0 mi WNW 15.0 mph 20.7 mph N/A   Overcast
12:41 PM 66.2 °F - 55.4 °F 68% 29.95 in 10.0 mi WNW 16.1 mph 21.9 mph N/A   Scattered Clouds
12:53 PM 66.9 °F - 54.0 °F 63% 29.94 in 10.0 mi WNW 12.7 mph 21.9 mph N/A   Partly Cloudy
1:53 PM 68.0 °F - 54.0 °F 61% 29.92 in 10.0 mi NW 10.4 mph 18.4 mph N/A   Partly Cloudy
2:53 PM 66.9 °F - 50.0 °F 54% 29.94 in 10.0 mi West 13.8 mph 19.6 mph N/A   Clear
3:53 PM 66.0 °F - 46.9 °F 50% 29.95 in 10.0 mi NW 10.4 mph - N/A   Clear
4:53 PM 63.0 °F - 45.0 °F 52% 29.97 in 10.0 mi WNW 10.4 mph - N/A   Clear
5:53 PM 59.0 °F - 45.0 °F 60% 30.00 in 10.0 mi WNW 8.1 mph - N/A   Clear
6:53 PM 57.0 °F - 41.0 °F 55% 30.04 in 10.0 mi WNW 10.4 mph - N/A   Clear
7:53 PM 53.1 °F - 41.0 °F 64% 30.07 in 10.0 mi NW 10.4 mph - N/A   Clear
8:53 PM 48.9 °F - 39.9 °F 71% 30.12 in 10.0 mi NW 16.1 mph 20.7 mph N/A   Clear
9:53 PM 45.0 °F 39.7 °F 36.0 °F 71% 30.16 in 10.0 mi NW 10.4 mph - N/A   Clear
10:53 PM 43.0 °F 38.2 °F 35.1 °F 74% 30.20 in 10.0 mi NW 8.1 mph - N/A   Scattered Clouds
11:53 PM 41.0 °F 36.4 °F 33.1 °F 73% 30.21 in 10.0 mi NW 6.9 mph - N/A   Clear